Hagerstown, MD

1:24 AM EDT on August 20, 2017 (GMT -0400)
Hagerstown Regional-Henson

Weather History for KHGR - February, 2012

Change the Weather History Date:

Wednesday, February 22, 2012

  Actual Average Record
Temperature  
Mean Temperature 49 °F 35 °F  
Max Temperature 59 °F 43 °F 66 °F (2017)
Min Temperature 39 °F 27 °F 15 °F (1999)
Degree Days  
Heating Degree Days 16 30  
Month to date heating degree days 594 703  
Since 1 July heating degree days 3166 3727  
Cooling Degree Days 0 0  
Month to date cooling degree days 0 0  
Year to date cooling degree days 0 0  
Moisture  
Dew Point 31 °F    
Average Humidity 52    
Maximum Humidity 76    
Minimum Humidity 28    
Precipitation  
Precipitation 0.00 in 0.09 in 0.85 in (2003)
Month to date precipitation 0.69 2.03  
Year to date precipitation 3.05 4.71  
Sea Level Pressure  
Sea Level Pressure 29.69 in    
Wind  
Wind Speed 8 mph (SSW)    
Max Wind Speed 21 mph    
Max Gust Speed 32 mph    
Visibility 10 miles    
Events      
T = Trace of Precipitation, MM = Missing Value Source: NWS Daily Summary

Daily Weather History Graph

Daily Weather History Graph

Search for Another Location

Airport or City:

Trip Planner

Search our weather history database for the weather conditions in past years. The results will help you decide how hot, cold, wet, or windy it might be!

Date:

Astronomy

Feb. 22, 2012 Rise Set
Actual Time 6:54 AM EST 5:54 PM EST
Civil Twilight 6:27 AM EST 6:22 PM EST
Nautical Twilight 5:56 AM EST 6:53 PM EST
Astronomical Twilight 5:24 AM EST 7:24 PM EST
Moon 6:52 AM EST (2/22) 6:59 PM EST (2/22)
Length of Visible Light 11h 54m
Length of Day
10h 59m
New Moon, 1% of the Moon is Illuminated
Feb 22
New Moon
Feb 29
First Quarter
Mar 8
Full
Mar 14
Last Quarter
Mar 22
New

Hourly Weather History & Observations

Time (EST) Temp. Windchill Dew Point Humidity Pressure Visibility Wind Dir Wind Speed Gust Speed Precip Events Conditions
12:53 AM 46.0 °F 41.4 °F 30.9 °F 56% 29.84 in 10.0 mi SSW 9.2 mph 17.3 mph N/A   Overcast
1:53 AM 45.0 °F 40.6 °F 32.0 °F 60% 29.84 in 10.0 mi South 8.1 mph - N/A   Overcast
2:53 AM 44.1 °F 40.8 °F 32.0 °F 63% 29.83 in 10.0 mi South 5.8 mph - N/A   Overcast
3:53 AM 42.1 °F 38.4 °F 32.0 °F 67% 29.82 in 10.0 mi South 5.8 mph - N/A   Scattered Clouds
4:53 AM 39.9 °F 35.1 °F 30.9 °F 70% 29.83 in 10.0 mi South 6.9 mph - N/A   Clear
5:53 AM 39.9 °F 35.8 °F 32.0 °F 73% 29.84 in 10.0 mi South 5.8 mph - N/A   Clear
6:53 AM 44.1 °F 40.8 °F 30.9 °F 60% 29.84 in 10.0 mi WSW 5.8 mph - N/A   Clear
7:53 AM 43.0 °F 39.5 °F 32.0 °F 65% 29.86 in 10.0 mi SSW 5.8 mph - N/A   Clear
8:53 AM 46.9 °F - 30.0 °F 52% 29.85 in 10.0 mi SW 6.9 mph - N/A   Clear
9:53 AM 50.0 °F - 28.9 °F 44% 29.82 in 10.0 mi SW 9.2 mph 16.1 mph N/A   Clear
10:53 AM 52.0 °F - 27.0 °F 38% 29.78 in 10.0 mi SW 9.2 mph 17.3 mph N/A   Clear
11:53 AM 54.0 °F - 30.0 °F 40% 29.74 in 10.0 mi South 11.5 mph - N/A   Clear
12:53 PM 55.9 °F - 27.0 °F 33% 29.69 in 10.0 mi South 11.5 mph 19.6 mph N/A   Clear
1:53 PM 57.9 °F - 26.1 °F 30% 29.64 in 10.0 mi SSW 11.5 mph 28.8 mph N/A   Mostly Cloudy
2:53 PM 59.0 °F - 26.1 °F 28% 29.60 in 10.0 mi South 11.5 mph - N/A   Overcast
3:53 PM 57.0 °F - 27.0 °F 32% 29.60 in 10.0 mi SW 6.9 mph - N/A   Overcast
4:53 PM 57.0 °F - 28.9 °F 34% 29.59 in 10.0 mi Calm Calm - N/A   Overcast
5:53 PM 55.9 °F - 33.1 °F 42% 29.56 in 10.0 mi Calm Calm - 0.00 in   Overcast
6:53 PM 55.0 °F - 32.0 °F 42% 29.55 in 10.0 mi SE 4.6 mph - N/A   Overcast
7:53 PM 55.0 °F - 32.0 °F 42% 29.52 in 10.0 mi South 11.5 mph - N/A   Clear
8:53 PM 54.0 °F - 35.1 °F 49% 29.51 in 10.0 mi SSW 9.2 mph - N/A   Clear
9:53 PM 48.9 °F - 36.0 °F 61% 29.49 in 10.0 mi South 4.6 mph - N/A   Clear
10:53 PM 52.0 °F - 37.9 °F 59% 29.49 in 10.0 mi SW 6.9 mph - N/A   Overcast
11:53 PM 50.0 °F - 37.9 °F 63% 29.49 in 10.0 mi West 5.8 mph - N/A   Overcast